Skip Page Navigation
NASA JPL Caltech
NASA Logo - Jet Propulsion Laboratory + View the NASA Portal
+ Center for Near-Earth Object Studies
JPL Home Earth Solar System Stars & Galaxies Technology
JPL Solar System Dynamics
BODIES ORBITS EPHEMERIDES TOOLS PHYSICAL DATA DISCOVERY FAQ SITE MAP
IMPORTANT: The SSD Announcement email list is now available. Major changes are coming in the near future, including possible hostname and/or URL changes. To be notified of such changes, subscribe to this email list.

Please visit this page for more details.


JPL Small-Body Database Browser
Search: [ help ]  
201159 (2002 LC18)
Classification: Main-belt Asteroid          SPK-ID: 2201159
Ephemeris | Orbit Diagram | Orbital Elements | Mission Design | Physical Parameters | Discovery Circumstances | Close-Approach Data ]

[ show orbit diagram ]
Orbital Elements at Epoch 2459000.5 (2020-May-31.0) TDB
Reference: JPL 16 (heliocentric ecliptic J2000)
 Element Value Uncertainty (1-sigma)   Units 
e .1485803213004461 3.3143e-08  
a 2.557562511564127 1.6196e-08 au
q 2.177559051849953 8.1821e-08 au
i 3.954559364026027 3.7012e-06 deg
node 100.4115772130098 0.00012638 deg
peri 182.4542841173856 0.00012966 deg
M 120.2327291817484 3.1081e-05 deg
tp 2458501.548861816796
(2019-Jan-18.04886182)
0.00012823 TDB
period 1493.956021529125
4.09
1.4191e-05
3.885e-08
d
yr
n .2409709488178409 2.289e-09 deg/d
Q 2.937565971278301 1.8603e-08 au
  Orbit Determination Parameters
   # obs. used (total)      321  
   data-arc span      6354 days (17.40 yr)  
   first obs. used      2002-06-06  
   last obs. used      2019-10-29  
   planetary ephem.      DE431  
   SB-pert. ephem.      SB431-N16  
   condition code      0  
   norm. resid. RMS      .60802  
   source      ORB  
   producer      Otto Matic  
   solution date      2019-Nov-07 22:57:18  

Additional Information
 Earth MOID = 1.1611 au 
 Jupiter MOID = 2.19898 au 
 T_jup = 3.418 
[ show covariance matrix ]

Ephemeris | Orbit Diagram | Orbital Elements | Mission Design | Physical Parameters | Discovery Circumstances | Close-Approach Data ]

Physical Parameter Table
Parameter Symbol Value Units Sigma Reference Notes
absolute magnitude H 16.6   n/a MPO440088  

201159 (2002 LC18)          Discovered 2002-Jun-06 by LINEAR at Socorro
Reference: 20081212/Numbers.arcLast Updated: 2008-12-12

[ hide close-approach data ]
Close-Approach Data   ...sorted by Date/Time (TDB)
Date/Time (TDB) Time Uncertainty
(days_HH:MM)
Body Nominal Distance (au) Minimum Distance (au) Maximum Distance (au) V-relative (km/s) V-infinity (km/s) JD (TDB) Time Uncertainty (minutes) Semi-major axis (km) Semi-minor axis (km) range-LOV angle (deg) N-sigma BP Orbit Ref. Reference Modified
1939-Oct-31 09:34 00:04 Europ 0.0372676601035027 0.0372661229466762 0.0372691972755043 3.67391032145155 3.67391024382487 2429567.898373957 3.78854763816478 754.90288981622 76.4989258965405 -89.7030755700504 72819.3459744556 T 16 CATAB v2.0f-lin.ifort 2019-Nov-07 22:57:42 2019-Nov-07 22:57
2045-Aug-03 15:03 < 00:01 Inter 0.0411275391699714 0.0411217344049491 0.0411333444503444 6.77820740877761 6.77820735626409 2468196.127018669 0.571275536125463 370.956982743711 42.9937806678275 39.041348479213 91023.4514857278 T 16 CATAB v2.0f-lin.ifort 2019-Nov-07 22:57:42 2019-Nov-07 22:57

Alternate Designations
 2002 LC18 = 2006 JP48 
Ephemeris | Orbit Diagram | Orbital Elements | Mission Design | Physical Parameters | Discovery Circumstances | Close-Approach Data ]
ABOUT SSD CREDITS/AWARDS PRIVACY/COPYRIGHT GLOSSARY LINKS
FirstGov 2020-Feb-23 21:06 UT
(server date/time)  
NASA Home Page
Site Manager:   Ryan S. Park
Webmaster  Alan B. Chamberlin